This is the latest recevied weather packets stored in our database for station/object WX2NJ. If no packets are shown the sender has not sent any weather packets the latest 10 day(s).
| Time | Temp. | Humidity | Pressure | Rain* | Wind** | Luminosity | Snow |
|---|---|---|---|---|---|---|---|
| 1778158889 | 11.67° C | 89% | 1014.6 hPa | 0 mm | - | 109 W/m² | - |
| 1778158588 | 11.67° C | 89% | 1014.8 hPa | 0 mm | - | 73 W/m² | - |
| 1778158285 | 11.11° C | 90% | 1014.7 hPa | 0 mm | - | 72 W/m² | - |
| 1778157980 | 11.11° C | 90% | 1014.7 hPa | 0 mm | - | 62 W/m² | - |
| 1778157679 | 11.11° C | 90% | 1014.7 hPa | 0 mm | - | 44 W/m² | - |
| 1778157377 | 11.11° C | 90% | 1014.8 hPa | 0 mm | - | 69 W/m² | - |
| 1778157073 | 11.11° C | 91% | 1014.7 hPa | 0 mm | - | 60 W/m² | - |
| 1778156768 | 10.56° C | 91% | 1014.5 hPa | 0 mm | - | 51 W/m² | - |
| 1778156464 | 11.11° C | 91% | 1014.7 hPa | 0 mm | - | 40 W/m² | - |
| 1778156161 | 11.11° C | 91% | 1014.9 hPa | 0 mm | - | 50 W/m² | - |
| 1778155857 | 11.11° C | 91% | 1014.7 hPa | 0 mm | - | 46 W/m² | - |
| 1778155553 | 10.56° C | 91% | 1014.9 hPa | 0 mm | - | 44 W/m² | - |
| 1778155250 | 11.11° C | 91% | 1014.7 hPa | 0 mm | - | 51 W/m² | - |
| 1778154946 | 11.11° C | 91% | 1014.7 hPa | 0 mm | - | 55 W/m² | - |
| 1778154642 | 10.56° C | 91% | 1014.8 hPa | 0 mm | - | 50 W/m² | - |
| 1778154338 | 10.56° C | 91% | 1014.4 hPa | 0 mm | - | 40 W/m² | - |
| 1778154036 | 10.56° C | 91% | 1014.3 hPa | 0 mm | - | 37 W/m² | - |
| 1778153732 | 10.56° C | 91% | 1014.5 hPa | 0 mm | - | 26 W/m² | - |
| 1778153430 | 10.56° C | 91% | 1014.5 hPa | 0 mm | - | 21 W/m² | - |
| 1778153127 | 10.56° C | 91% | 1014.2 hPa | 0 mm | - | 26 W/m² | - |
| 1778152824 | 10.56° C | 91% | 1014.1 hPa | 0 mm | - | 28 W/m² | - |
| 1778152521 | 10.56° C | 91% | 1013.9 hPa | 0.51 mm | - | 21 W/m² | - |
| 1778152217 | 10.56° C | 91% | 1014.1 hPa | 1.27 mm | - | 15 W/m² | - |
| 1778151914 | 10.56° C | 91% | 1014.2 hPa | 1.78 mm | - | 9 W/m² | - |
| 1778151611 | 10.56° C | 91% | 1014.1 hPa | 1.27 mm | - | 7 W/m² | - |
* Rain latest hour (hover to see other rain measurements)
** Current wind speed in m/s (hover to see current wind gust speed)